Change the Weather History Date:

Thursday, April 11, 2013

  Actual Average (KRDU) Record (KRDU)
Temperature  
Mean Temperature 70 °F 59 °F  
Max Temperature 80 °F 71 °F 90 °F (1930)
Min Temperature 60 °F 47 °F 27 °F (1960)
Degree Days  
Heating Degree Days 0 7  
Month to date heating degree days 91  
Since 1 July heating degree days 3087  
Cooling Degree Days 5 1  
Month to date cooling degree days 11  
Year to date cooling degree days 23  
Growing Degree Days 20 (Base 50)    
Moisture  
Dew Point 60 °F    
Average Humidity 68    
Maximum Humidity 100    
Minimum Humidity 39    
Precipitation  
Precipitation 0.00 in 0.10 in 1.91 in (1944)
Month to date precipitation 1.15  
Year to date precipitation 11.99  
Snow  
Snow 0.00 in 0.00 in 0.30 in (1989)
Month to date snowfall 0.1  
Since 1 July snowfall 6.1  
Snow Depth -    
Sea Level Pressure  
Sea Level Pressure 29.92 in    
Wind  
Wind Speed 6 mph (SSW)    
Max Wind Speed 15 mph    
Max Gust Speed 23 mph    
Visibility 10 miles    
Events      
T = Trace of Precipitation, MM = Missing Value Source: NWS Daily Summary

Daily Weather History Graph

Daily Weather History Graph

Search for Another Location

Airport or City:

Trip Planner

Search our weather history database for the weather conditions in past years. The results will help you decide how hot, cold, wet, or windy it might be!

Date:

Astronomy

Apr. 11, 2013 Rise Set
Actual Time 6:45 AM EDT 7:43 PM EDT
Civil Twilight 6:19 AM EDT 8:10 PM EDT
Nautical Twilight 5:47 AM EDT 8:41 PM EDT
Astronomical Twilight 5:15 AM EDT 9:13 PM EDT
Moon 7:18 AM EDT (4/11) 9:12 PM EDT (4/11)
Length of Visible Light 13h 51m
Length of Day
12h 58m
New Moon, 2% of the Moon is Illuminated
Apr 11
New Moon
Apr 18
First Quarter
Apr 25
Full
May 2
Last Quarter
May 9
New

Hourly Weather History & Observations

Time (EDT) Temp. Heat Index Dew Point Humidity Pressure Visibility Wind Dir Wind Speed Gust Speed Precip Events Conditions
12:15 AM 68.0 °F - 60.8 °F 78% 29.98 in 10.0 mi South 4.6 mph - N/A   Clear
12:35 AM 68.0 °F - 60.8 °F 78% 29.98 in 10.0 mi SSW 6.9 mph - N/A   Clear
12:55 AM 68.0 °F - 59.0 °F 73% 29.98 in 10.0 mi SSW 5.8 mph - N/A   Clear
1:15 AM 66.2 °F - 59.0 °F 78% 29.98 in 10.0 mi SSW 4.6 mph - N/A   Clear
1:35 AM 66.2 °F - 59.0 °F 78% 29.97 in 10.0 mi SSW 6.9 mph - N/A   Clear
1:55 AM 66.2 °F - 59.0 °F 78% 29.97 in 10.0 mi Calm Calm - N/A   Clear
2:15 AM 64.4 °F - 57.2 °F 77% 29.97 in 10.0 mi SSW 6.9 mph - N/A   Clear
2:35 AM 64.4 °F - 57.2 °F 77% 29.97 in 10.0 mi Calm Calm - N/A   Clear
2:55 AM 64.4 °F - 57.2 °F 77% 29.97 in 10.0 mi SSW 5.8 mph - N/A   Clear
3:15 AM 64.4 °F - 59.0 °F 83% 29.97 in 10.0 mi SSW 5.8 mph - N/A   Clear
3:35 AM 62.6 °F - 59.0 °F 88% 29.96 in 10.0 mi SSW 5.8 mph - N/A   Clear
3:55 AM 62.6 °F - 59.0 °F 88% 29.96 in 10.0 mi SSW 5.8 mph - N/A   Clear
4:15 AM 62.6 °F - 59.0 °F 88% 29.96 in 10.0 mi SSW 4.6 mph - N/A   Clear
4:35 AM 62.6 °F - 59.0 °F 88% 29.96 in 10.0 mi SSW 6.9 mph - N/A   Clear
4:55 AM 62.6 °F - 60.8 °F 94% 29.96 in 10.0 mi SSW 4.6 mph - N/A   Clear
5:15 AM 62.6 °F - 60.8 °F 94% 29.96 in 10.0 mi SSW 5.8 mph - N/A   Clear
5:35 AM 60.8 °F - 60.8 °F 100% 29.96 in 10.0 mi SSW 4.6 mph - N/A   Clear
5:55 AM - - - N/A% 29.97 in 10.0 mi SSW 4.6 mph - N/A   Clear
6:15 AM - - - N/A% 29.96 in 10.0 mi SSW 5.8 mph - N/A   Clear
6:35 AM - - - N/A% 29.97 in 10.0 mi SW 3.5 mph - N/A   Clear
6:55 AM - - - N/A% 29.98 in 10.0 mi SSW 4.6 mph - N/A   Clear
7:15 AM - - - N/A% 29.98 in 10.0 mi SSW 5.8 mph - N/A   Clear
7:35 AM - - - N/A% 29.99 in 10.0 mi SSW 4.6 mph - N/A   Scattered Clouds
7:55 AM - - - N/A% 30.00 in 10.0 mi SSW 4.6 mph - N/A   Mostly Cloudy
8:15 AM - - - N/A% 30.00 in 10.0 mi SW 6.9 mph - N/A   Mostly Cloudy
8:35 AM - - - N/A% 30.00 in 10.0 mi SSW 5.8 mph - N/A   Scattered Clouds
8:55 AM 68.0 °F - 68.0 °F 100% 30.01 in 10.0 mi SW 4.6 mph - N/A   Scattered Clouds
9:15 AM 68.0 °F - 62.6 °F 83% 30.01 in 10.0 mi SW 4.6 mph 19.6 mph N/A   Scattered Clouds
9:35 AM 68.0 °F - 62.6 °F 83% 30.01 in 10.0 mi SSW 8.1 mph - N/A   Scattered Clouds
9:55 AM 69.8 °F - 62.6 °F 78% 30.00 in 10.0 mi Calm Calm - N/A   Scattered Clouds
10:15 AM 71.6 °F - 62.6 °F 73% 30.00 in 10.0 mi SSW 9.2 mph 16.1 mph N/A   Scattered Clouds
10:35 AM 71.6 °F - 62.6 °F 73% 29.99 in 10.0 mi SSW 6.9 mph - N/A   Scattered Clouds
10:55 AM 73.4 °F - 62.6 °F 69% 29.99 in 10.0 mi SSW 6.9 mph - N/A   Scattered Clouds
11:15 AM 73.4 °F - 60.8 °F 65% 29.99 in 10.0 mi SW 9.2 mph - N/A   Scattered Clouds
11:35 AM 73.4 °F - 60.8 °F 65% 29.99 in 10.0 mi South 13.8 mph 18.4 mph N/A   Scattered Clouds
11:55 AM 73.4 °F - 60.8 °F 65% 29.99 in 10.0 mi SSW 8.1 mph 17.3 mph N/A   Mostly Cloudy
12:15 PM 73.4 °F - 60.8 °F 65% 29.98 in 10.0 mi SSW 5.8 mph - N/A   Overcast
12:35 PM 75.2 °F - 60.8 °F 61% 29.97 in 10.0 mi SSW 11.5 mph 17.3 mph N/A   Mostly Cloudy
1:15 PM 77.0 °F - 59.0 °F 54% 29.95 in 10.0 mi WSW 6.9 mph - N/A   Mostly Cloudy
1:35 PM 78.8 °F - 57.2 °F 47% 29.95 in 10.0 mi SSW 8.1 mph - N/A   Scattered Clouds
1:55 PM 78.8 °F - 57.2 °F 47% 29.93 in 10.0 mi WSW 4.6 mph - N/A   Mostly Cloudy
2:15 PM 78.8 °F - 57.2 °F 47% 29.92 in 10.0 mi SSW 6.9 mph - N/A   Scattered Clouds
2:35 PM 80.6 °F 80.5 °F 55.4 °F 42% 29.91 in 10.0 mi SSW 6.9 mph - N/A   Clear
2:55 PM 78.8 °F - 55.4 °F 44% 29.91 in 10.0 mi SSW 5.8 mph 16.1 mph N/A   Scattered Clouds
3:15 PM 80.6 °F 80.5 °F 55.4 °F 42% 29.89 in 10.0 mi South 13.8 mph 18.4 mph N/A   Scattered Clouds
3:35 PM 78.8 °F - 55.4 °F 44% 29.88 in 10.0 mi South 6.9 mph - N/A   Mostly Cloudy
3:55 PM 78.8 °F - 55.4 °F 44% 29.87 in 10.0 mi South 9.2 mph - N/A   Mostly Cloudy
4:15 PM 78.8 °F - 55.4 °F 44% 29.86 in 10.0 mi SSW 8.1 mph - N/A   Scattered Clouds
4:35 PM 80.6 °F 80.5 °F 55.4 °F 42% 29.86 in 10.0 mi South 9.2 mph 16.1 mph N/A   Scattered Clouds
4:55 PM 80.6 °F 80.3 °F 53.6 °F 39% 29.86 in 10.0 mi SW 8.1 mph 16.1 mph N/A   Scattered Clouds
5:15 PM 80.6 °F 80.5 °F 55.4 °F 42% 29.85 in 10.0 mi SSW 8.1 mph - N/A   Scattered Clouds
5:35 PM 78.8 °F - 55.4 °F 44% 29.84 in 10.0 mi SSW 4.6 mph - N/A   Scattered Clouds
5:55 PM 78.8 °F - 55.4 °F 44% 29.84 in 10.0 mi South 6.9 mph - N/A   Mostly Cloudy
6:15 PM 78.8 °F - 55.4 °F 44% 29.84 in 10.0 mi South 6.9 mph - N/A   Overcast
6:35 PM 77.0 °F - 55.4 °F 47% 29.83 in 10.0 mi South 6.9 mph - N/A   Mostly Cloudy
6:55 PM 77.0 °F - 57.2 °F 50% 29.83 in 10.0 mi South 4.6 mph - N/A   Scattered Clouds
7:15 PM 75.2 °F - 57.2 °F 53% 29.83 in 10.0 mi South 4.6 mph - N/A   Clear
7:35 PM 73.4 °F - 57.2 °F 57% 29.83 in 10.0 mi South 4.6 mph - N/A   Clear
7:55 PM 71.6 °F - 59.0 °F 64% 29.83 in 10.0 mi Calm Calm - N/A   Clear
8:15 PM 69.8 °F - 59.0 °F 68% 29.83 in 10.0 mi Calm Calm - N/A   Clear
8:35 PM 68.0 °F - 59.0 °F 73% 29.83 in 10.0 mi Calm Calm - N/A   Clear
8:55 PM 69.8 °F - 59.0 °F 68% 29.82 in 10.0 mi SSE 3.5 mph - N/A   Clear
9:15 PM 71.6 °F - 59.0 °F 64% 29.83 in 10.0 mi SSE 10.4 mph - N/A   Clear
9:35 PM 71.6 °F - 62.6 °F 73% 29.84 in 10.0 mi South 9.2 mph - N/A   Clear
9:55 PM 71.6 °F - 62.6 °F 73% 29.84 in 10.0 mi South 8.1 mph - N/A   Scattered Clouds
10:15 PM 71.6 °F - 64.4 °F 78% 29.84 in 10.0 mi South 9.2 mph - N/A   Mostly Cloudy
10:35 PM 71.6 °F - 64.4 °F 78% 29.84 in 10.0 mi South 6.9 mph - N/A   Overcast
10:55 PM 71.6 °F - 66.2 °F 83% 29.84 in 10.0 mi South 15.0 mph 19.6 mph N/A   Overcast
11:15 PM 71.6 °F - 68.0 °F 88% 29.83 in 10.0 mi South 11.5 mph 16.1 mph N/A   Mostly Cloudy
11:35 PM 71.6 °F - 68.0 °F 88% 29.83 in 10.0 mi South 11.5 mph 19.6 mph N/A   Scattered Clouds
11:55 PM 71.6 °F - 68.0 °F 88% 29.84 in 10.0 mi South 15.0 mph 23.0 mph N/A   Scattered Clouds